Total_Precipitation_Accumulation
0.06 0.05 0.07 0.09 0.08 0.10 0.14 0.15 0.16 0.19 0.25 0.26 0.26 0.23 0.20 0.22 0.22 0.26 0.36 0.39 0.34 0.28
0.03 0.05 0.06 0.09 0.11 0.11 0.12 0.15 0.18 0.20 0.21 0.22 0.21 0.21 0.20 0.20 0.18 0.19 0.24 0.27 0.30 0.33
0.03 0.05 0.06 0.06 0.07 0.09 0.11 0.10 0.12 0.12 0.12 0.12 0.11 0.12 0.14 0.16 0.17 0.20 0.23 0.30 0.36 0.42
0.03 0.04 0.06 0.04 0.04 0.05 0.05 0.05 0.05 0.06 0.06 0.05 0.04 0.04 0.05 0.08 0.10 0.16 0.20 0.24 0.33 0.38
0.02 0.04 0.05 0.05 0.03 0.03 0.03 0.02 0.01 0.01 0.01 0.01 0.01 0.01 0.02 0.03 0.05 0.07 0.07 0.11 0.20 0.27
0.00 0.00 0.01 0.01 0.02 0.03 0.03 0.01 0.01 0.01 0.01 0.00 0.00 0.00 0.00 0.02 0.04 0.06 0.09 0.12 0.18 0.19
0.02 0.02 0.01 0.01 0.01 0.02 0.02 0.02 0.01 0.01 0.01 0.00 0.00 0.01 0.02 0.04 0.07 0.09 0.09 0.10 0.13 0.18
0.03 0.02 0.02 0.02 0.01 0.01 0.02 0.01 0.01 0.02 0.02 0.02 0.02 0.05 0.07 0.08 0.12 0.16 0.19 0.22 0.26 0.27
0.03 0.02 0.02 0.02 0.01 0.01 0.02 0.03 0.07 0.10 0.13 0.14 0.17 0.30 0.26 0.24 0.26 0.30 0.33 0.34 0.31 0.29
0.05 0.10 0.09 0.10 0.07 0.06 0.06 0.08 0.13 0.22 0.35 0.54 0.70 0.79 0.74 0.66 0.64 0.65 0.52 0.33 0.23 0.14
0.18 0.31 0.55 0.45 0.42 0.39 0.31 0.24 0.27 0.30 0.32 0.41 0.46 0.41 0.30 0.24 0.18 0.13 0.09 0.05 0.02 0.02
0.44 0.54 0.49 0.31 0.49 0.48 0.39 0.44 0.48 0.46 0.37 0.30 0.21 0.15 0.10 0.07 0.06 0.05 0.03 0.01 0.01 0.05
0.70 0.56 0.45 0.23 0.40 0.50 0.39 0.30 0.30 0.29 0.20 0.14 0.08 0.06 0.04 0.04 0.05 0.03 0.01 0.02 0.02 0.03
0.48 0.47 0.37 0.28 0.30 0.28 0.26 0.16 0.12 0.13 0.08 0.04 0.02 0.01 0.00 0.01 0.02 0.03 0.14 0.11 0.03 0.03